Regional Weather Roundup
Issued by NWS Upton, NY

Current Version | Previous Version | Text Only | Print | Product List | Glossary On
Versions: 1 2 3 4 5 6 7 8 9 10 11 12 13 14 15 16 17 18 19 20 21 22 23 24 25 26 27 28
000
ASUS41 KOKX 041604
RWROKX

REGIONAL WEATHER ROUNDUP
NATIONAL WEATHER SERVICE NEW YORK NY
1200 PM EDT WED MAY 04 2016

NOTE: "FAIR" INDICATES FEW OR NO CLOUDS BELOW 12,000 FEET WITH NO
SIGNIFICANT WEATHER AND/OR OBSTRUCTIONS TO VISIBILITY.

NYZ071-072-176-178-NJZ106-104-041700-
NEW YORK CITY METRO AREA


CITY           SKY/WX    TMP DP  RH WIND       PRES   REMARKS
CENTRAL PARK   CLOUDY    50  45  83 E12G18    29.80F
LAGUARDIA APRT LGT RAIN  50  48  93 NE16      29.78F
KENNEDY INTL   CLOUDY    53  46  77 E16       29.79F
NEWARK/LIBERTY CLOUDY    58  46  64 E10       29.77F
BRNX BOT. GARD   N/A     48  45  87 N3        29.79F
TETERBORO      CLOUDY    50  43  77 E10G20    29.77F
$$

NYZ177-179-078>081-041700-
LONG ISLAND NEW YORK

CITY           SKY/WX    TMP DP  RH WIND       PRES   REMARKS
FARMINGDALE    CLOUDY    51  46  83 E12       29.78F
ISLIP          DRIZZLE   49  46  90 E9        29.80F FOG
SHIRLEY        LGT RAIN  49  45  86 E7        29.82R FOG
RIVERHEAD        N/A     50  45  81 SE2       29.81S
WESTHAMPTON    CLOUDY    46  43  89 E12G18    29.83S
EAST HAMPTON   CLOUDY    49  43  78 E12       29.82S
MONTAUK POINT    N/A     49  44  83 NE10G18   29.84S
$$

NYZ052-065-067-041700-
HUDSON VALLEY

CITY           SKY/WX    TMP DP  RH WIND       PRES   REMARKS
WHITE PLAINS   CLOUDY    49  44  83 E8G17     29.78F
NEWBURGH       CLOUDY    48  48 100 E8        29.80S
MONTGOMERY     LGT RAIN  50  47  89 NE7       29.79F
POUGHKEEPSIE   CLOUDY    51  46  83 N6        29.80F
ALBANY         LGT RAIN  52  46  80 S6        29.82S
$$

NJZ001-105-106-008-010-013-015-019>022-104-041700-
NEW JERSEY

CITY           SKY/WX    TMP DP  RH WIND       PRES   REMARKS
NEWARK/LIBERTY CLOUDY    58  46  64 E10       29.77F
TETERBORO      CLOUDY    50  43  77 E10G20    29.77F
CALDWELL       CLOUDY    51  45  79 E14       29.78F HAZE
MORRISTOWN     CLOUDY    52  48  87 E9G17     29.78F
SOMERVILLE     CLOUDY    52  47  83 VRB6      29.75F
SUSSEX         CLOUDY    51  45  79 NE5       29.78F
ANDOVER          N/A     50  46  86 E5        29.77S
TRENTON        CLOUDY    52  47  83 E7        29.75S
MILLVILLE      LGT RAIN  51  49  92 NE9       29.73S
ATLANTIC CITY  CLOUDY    50  48  93 NE16G28   29.72F FOG
WRIGHTSTOWN    CLOUDY    50  48  93 NE15      29.73S
TOMS RIVER     CLOUDY    48  45  87 E12       29.77S
BELMAR         LGT RAIN  48  47  96 E13G21    29.78R FOG
$$

PAZ047>061-062-071-041700-
EASTERN PENNSYLVANIA

CITY           SKY/WX    TMP DP  RH WIND       PRES   REMARKS
PHILADELPHIA   CLOUDY    54  47  77 E12       29.74F
ALLENTOWN      CLOUDY    51  47  86 E6        29.76S FOG
SCRANTON       CLOUDY    53  47  79 CALM      29.74S
$$

CTZ002-004>006-009-010-012-RIZ004-006-007-MAZ004-011-015-041700-
SOUTHERN NEW ENGLAND
 IN CT

CITY           SKY/WX    TMP DP  RH WIND       PRES   REMARKS
BRADLEY INTL   DRIZZLE   50  44  80 N9        29.84F
HARTFORD       CLOUDY    53  43  68 E7        29.83F
DANBURY        CLOUDY    51  43  74 E10       29.80F
WTRBRY/OXFORD  CLOUDY    48  41  76 E7        29.82F
BRIDGEPORT     CLOUDY    51  45  79 E15       29.81F
MERIDEN        CLOUDY    52  42  69 NE8       29.83F
NEW HAVEN      CLOUDY    51  44  77 E9        29.81F
CHESTER        CLOUDY    50  45  81 E8        29.82S
GROTON         CLOUDY    52  48  86 NE13      29.82F
WILLIMANTIC    CLOUDY    52  42  69 NE12      29.83F

 IN RI

CITY           SKY/WX    TMP DP  RH WIND       PRES   REMARKS
PROVIDENCE     CLOUDY    52  41  66 NE15      29.86F
BLOCK ISLAND   CLOUDY    48  43  82 E17G25    29.83F
WESTERLY       CLOUDY    52  42  69 NE10      29.84S

 IN MA

CITY           SKY/WX    TMP DP  RH WIND       PRES   REMARKS
BOSTON         CLOUDY    48  43  82 E13       29.90F
WORCESTER      CLOUDY    45  40  82 E12       29.86S
WESTFIELD      LGT RAIN  48  44  86 N6        29.85F
PROVINCETOWN   CLOUDY    47  43  86 E13       29.89F
NANTUCKET      LGT RAIN  48  43  82 NE17G26   29.84R
$$

ANZ330-335-338-340-345-350-353-355-041700-
COASTAL MARINE OBSERVATIONS


STATION/POSITION TIME  SKY/WX   TEMP    WIND        PRES    VSBY  WAVE
                                AIR SEA DIR/SP/G                  HT/PER
                 (UTC)          (F)     (DEG/KT/KT) (MB)    (MI)  (FT/S)
NY HARB ENTRANCE 1450            48 50   70/ 17/ 21 1008.4          4/ 6
20S FIRE ISLAND  1450            47 49   60/ 16/ 17 1008.5          5/ 6
GREAT SOUTH BAY  1500            49 55   90/ 16/ 17   N/A
23 SSW MONTAUK P 1550            47 47   80/ 19/ 23 1008.5          5/ 5
15 E BARNEGAT LI 1522               50                N/A           5/ 6
HUDSON CANYON    1450            50 49              1006.8          5/ 6
KINGS POINT      1500            49 53              1009.0
EXECUTION ROCKS  NOT AVBL
CENTRAL LI SOUND 1500            48      80/ 16/ 19   N/A           1/ 3
EASTERN LI SOUND 1500            49 47   90/ 17/ 23   N/A
ROBBINS REEF     1500            51      70/ 12/ 15 1007.9
$$


>>>>>>>>>>>>>>>>>>>>>>>>>>>> KEY <<<<<<<<<<<<<<<<<<<<<<<<<<<
>                                                          <
>     SKY/WX - SKY CONDITION/PRESENT WEATHER               <
>     TMP    - TEMPERATURE IN FAHRENHEIT                   <
>     DP     - DEWPOINT IN FAHRENHEIT                      <
>     RH     - RELATIVE HUMIDITY IN PERCENT                <
>     WIND   - DIRECTION AND SPEED IN MPH                  <
>     PRES   - MEAN SEA LEVEL PRESSURE IN INCHES OF HG     <
>     WCI    - WIND CHILL INDEX                            <
>     VSB    - VISIBILITY IN MILES                         <
>     HX     - HEAT INDEX                                  <
>     TC     - TEMPERATURE IN CELSIUS                      <
>     VRB    - VARIABLE WIND DIRECTION                     <
>                                                          <
>>>>>>>>>>>>>>>>>>>>>>>>>>>> KEY <<<<<<<<<<<<<<<<<<<<<<<<<<<






USA.gov is the U.S. government's official web portal to all federal, state and local government web resources and services.